Regional Weather Roundup
Issued by NWS

Home | Current Version | Previous Version | Graphics & Text | Print | Product List | Glossary On
Versions: 1 2 3 4 5 6 7 8 9 10 11 12 13 14 15 16 17 18 19 20 21 22 23 24 25 26 27
000
ASUS45 KGTF 060210
RWRMT
MONTANA HOURLY WEATHER ROUNDUP
NATIONAL WEATHER SERVICE GREAT FALLS MT
800 PM MDT TUE MAY 05 2015

NOTE: "FAIR" INDICATES FEW OR NO CLOUDS BELOW 12000 FEET WITH NO
SIGNIFICANT WEATHER AND/OR OBSTRUCTIONS TO VISIBILITY.

MTZ001>007-043-060300-
WEST OF THE DIVIDE

CITY           SKY/WX    TMP DP  RH WIND       PRES   REMARKS
KALISPELL      CLEAR     58  21  24 W13       29.84R
MISSOULA       CLEAR     58  24  27 W13       29.85S
BUTTE          CLOUDY    49  44  83 NW7       29.85R
DEER LODGE       N/A     52  37  58 NW10      29.87R
EUREKA           N/A     55  25  30 W6        29.88R
HAMILTON         N/A     55  27  33 NW7       29.86S
LIBBY            N/A     55  23  28 CALM      29.89R
$$

MTZ008-052>055-060300-
SOUTHWEST MONTANA

CITY           SKY/WX    TMP DP  RH WIND       PRES   REMARKS
BOZEMAN        CLOUDY    57  42  57 SW3       29.80S
DILLON         MOCLDY    56  42  59 N6        29.79F
$$

MTZ009-010-012-014-046-048-049-054-060300-
EAST SLOPES AND CENTRAL MONTANA

CITY           SKY/WX    TMP DP  RH WIND       PRES   REMARKS
CUT BANK       CLOUDY    57  24  28 W20       29.76R
GREAT FALLS    CLOUDY    56  46  69 E10       29.76R
HELENA         CLOUDY    52  50  93 E6        29.81R
$$

MTZ011-013-016-021-045-047-050-051-060300-
NORTH CENTRAL MONTANA

CITY           SKY/WX    TMP DP  RH WIND       PRES   REMARKS
HAVRE          CLOUDY    67  40  37 NW14      29.66R
LEWISTOWN      CLOUDY    56  46  69 NW7       29.76S
CHINOOK          N/A     68  45  42 SE23G30   29.64R
FORT BENTON      N/A     55  50  82 W6        29.77R
$$

MTZ017>020-022>042-056>058-061-062-060300-
EASTERN PLAINS

CITY           SKY/WX    TMP DP  RH WIND       PRES   REMARKS
BAKER          MOCLDY    63  49  60 SE18      29.75S
BILLINGS       CLOUDY    64  44  48 NW20G26   29.66R
GLASGOW        PTCLDY    70  43  37 E7        29.61S
JORDAN           N/A     73  40  30 SE9       29.61S
LIVINGSTON     CLOUDY    56  45  66 NW7       29.78R
MILES CITY     MOCLDY    73  48  41 SE15      29.65R
SIDNEY         PTCLDY    70  48  46 SE17      29.75R
WOLF POINT     PTCLDY    77  48  35 SE10G22   29.65R
BIG TIMBER       N/A     55  43  62 SW18      29.77R
FORSYTH          N/A     72  46  40 E5        29.62S
PLENTYWOOD       N/A     72  48  43 SE15      29.72R
POPLAR           N/A     72  52  49 SE22G31   29.68R
$$

REGIONAL REPORTS...DAKOTAS

CITY           SKY/WX    TMP DP  RH WIND       PRES   REMARKS
WILLISTON      CLEAR     71  49  45 SE15G25   29.76R
MINOT          PTCLDY    69  34  27 SE8       29.82R
DICKINSON      PTCLDY    63  49  60 SE18      29.79S
BEACH          FAIR      59  50  72 SE15      29.78R
CROSBY         FAIR      68  48  49 SE12      29.75R
WATFORD CITY   FAIR      68  48  49 S10       29.76R
BISMARCK       PTCLDY    70  47  43 S13       29.85R
GRAND FORKS    PTCLDY    71  47  42 S13       29.94R
FARGO          PTCLDY    70  53  54 SE21G30   29.97R
BUFFALO SD       N/A     62  49  62 SE18      29.72S
RAPID CITY     CLOUDY    61  50  67 S15       29.83S
$$

REGIONAL REPORTS...WYOMING/IDAHO/WASHINGTON

CITY           SKY/WX    TMP DP  RH WIND       PRES   REMARKS
GILLETTE       MOCLDY    60  48  64 SE18G28   29.75S
SHERIDAN       PTCLDY    67  45  45 SE15G22   29.65F
BUFFALO WY       N/A     62  44  51 S20G26    29.74S
CODY           CLOUDY    64  39  39 SW17G25   29.70R
YELLOWSTONE LA   N/A     44  35  70 CALM      29.92R
IDAHO FALLS    CLOUDY    54  47  77 E14       29.78F
SALMON           N/A     55  45  67 NW5       29.78R
BOISE          CLEAR     67  18  15 NW13      29.78R
SPOKANE        PTCLDY    58  16  19 W13       29.90S
$$

REGIONAL REPORTS...ALBERTA

CITY           SKY/WX    TMP DP  RH WIND       PRES   REMARKS
CALGARY        PTCLDY    50  34  53 N24G38    29.71R
LETHBRIDGE     MOCLDY    63  16  16 W23G29    29.70R
MEDICINE HAT   CLOUDY    63  46  55 S9        29.67R
$$

REGIONAL REPORTS...SASKATCHEWAN

CITY           SKY/WX    TMP DP  RH WIND       PRES   REMARKS
SWIFT CURRENT  CLOUDY    63  43  48 SW3       29.68R
REGINA         CLOUDY    70  41  35 SE13      29.70S
SASKATOON      CLOUDY    63  43  48 E14       29.72R THUNDER
$$



USA.gov is the U.S. government's official web portal to all federal, state and local government web resources and services.